TimeCDT,TemperatureF,Dew PointF,Humidity,Sea Level PressureIn,VisibilityMPH,Wind Direction,Wind SpeedMPH,Gust SpeedMPH,PrecipitationIn,Events,Conditions,WindDirDegrees,DateUTC
12:52 AM,57.0,48.9,74,30.03,10.0,Calm,Calm,-,N/A,,Clear,0,2012-09-30 05:52:00
1:52 AM,55.9,48.9,77,30.02,10.0,Calm,Calm,-,N/A,,Clear,0,2012-09-30 06:52:00
2:52 AM,53.1,48.9,86,30.02,10.0,NW,4.6,-,N/A,,Clear,320,2012-09-30 07:52:00
3:52 AM,51.1,48.0,89,30.00,10.0,Calm,Calm,-,N/A,,Clear,0,2012-09-30 08:52:00
4:52 AM,50.0,46.9,89,30.00,10.0,NW,3.5,-,N/A,,Clear,320,2012-09-30 09:52:00
5:52 AM,52.0,48.0,86,29.99,10.0,Calm,Calm,-,N/A,,Clear,0,2012-09-30 10:52:00
6:52 AM,51.1,48.0,89,29.99,10.0,WNW,5.8,-,N/A,,Clear,290,2012-09-30 11:52:00
7:52 AM,51.1,46.9,86,30.01,10.0,Calm,Calm,-,N/A,,Clear,0,2012-09-30 12:52:00
8:52 AM,57.0,51.1,81,30.01,10.0,Calm,Calm,-,N/A,,Clear,0,2012-09-30 13:52:00
9:52 AM,63.0,46.9,56,30.00,10.0,NNE,4.6,-,N/A,,Clear,30,2012-09-30 14:52:00
10:52 AM,66.9,48.0,51,29.99,10.0,NE,4.6,-,N/A,,Clear,50,2012-09-30 15:52:00
11:52 AM,71.1,46.9,42,29.98,10.0,NNE,5.8,-,N/A,,Clear,20,2012-09-30 16:52:00
12:52 PM,73.9,46.0,37,29.97,10.0,NNE,4.6,-,N/A,,Clear,30,2012-09-30 17:52:00
1:52 PM,75.0,39.0,27,29.94,10.0,ENE,6.9,-,N/A,,Clear,70,2012-09-30 18:52:00
2:52 PM,75.0,39.9,28,29.92,10.0,ENE,4.6,-,N/A,,Clear,70,2012-09-30 19:52:00
3:52 PM,75.0,39.0,27,29.91,10.0,Variable,3.5,-,N/A,,Clear,0,2012-09-30 20:52:00
4:52 PM,77.0,36.0,23,29.90,10.0,ESE,5.8,-,N/A,,Clear,110,2012-09-30 21:52:00
5:52 PM,75.9,36.0,23,29.89,10.0,East,3.5,-,N/A,,Clear,90,2012-09-30 22:52:00
6:52 PM,71.1,43.0,36,29.89,10.0,Calm,Calm,-,N/A,,Clear,0,2012-09-30 23:52:00
7:52 PM,61.0,46.0,58,29.91,10.0,Calm,Calm,-,N/A,,Clear,0,2012-10-01 00:52:00
8:52 PM,54.0,46.9,77,29.93,10.0,Calm,Calm,-,N/A,,Clear,0,2012-10-01 01:52:00
9:52 PM,55.0,46.9,74,29.93,10.0,Calm,Calm,-,N/A,,Clear,0,2012-10-01 02:52:00
10:52 PM,51.1,45.0,80,29.93,10.0,Calm,Calm,-,N/A,,Clear,0,2012-10-01 03:52:00
11:52 PM,48.9,45.0,86,29.93,10.0,Calm,Calm,-,N/A,,Clear,0,2012-10-01 04:52:00